RADARSAT

Satellite information

Favourite Embed

Satellite Type and Status

PAYLOADIN ORBIT

Key statistics

Satellite RADARSAT at a glance.

Uptime

10838

Days in orbit

Revolutions

≈ 14.3

Per day

Orbit

SSO

Sun Synchronous Orbit

Inclination

98.5

Latest

Satellite identification and parameters

Extended collection of information and parameters for RADARSAT.

Object identification

Identified? True

Debris? False

Object name: RADARSAT

International designator: 1995-059A

Object number (NORAD): 23710

Object ID (CCSDS): 23710

Country: CANADA (CA)

Current information (Y/N): Y

RCS size: LARGE

Orbital parameters

Period: 100.548 minutes

Inclination: 98.5493 deg

SMA: 7162.69 km

Apoapsis: 785.432 km

Periapsis: 783.677 km

RAAN: 196.4609 deg

Eccentricy: 0.0001225

Argument of periapsis: 75.0616 deg

Mean anomaly: 285.0703 deg

Mean motion: 14.3215019 rev/day

Mean motion (dot): 0.0000016 rev/day2

B* drag term: 0.000075678 1/REarth

Two-line elements (TLE)

Creation date: July 6, 2025, 10:56 p.m.

Reference frame: TEME

Reference center: EARTH

Epoch: July 6, 2025, 3:28 p.m. UTC

TLE line 0: 0 RADARSAT

TLE line 1: 1 23710U 95059A 25187.64444490 .00000160 00000-0 75678-4 0 9993

TLE line 2: 2 23710 98.5493 196.4609 0001225 75.0616 285.0703 14.32150190549169

Live tracking on map

Real-time ground track for satellite RADARSAT.

In-orbit conjunctions

A list of the most updated potential collisions computed for object RADARSAT.

Target Orbit TCA Probability of collision Miss distance Type
COSMOS 1275 DEB LEO 2025-04-12 03:22:43 0.0001298519 199.0 (m) DEBRIS
METEOR 2-5 DEB LEO 2025-03-14 16:11:29 0.001121781 107.0 (m) DEBRIS
CZ-6A DEB LEO 2025-02-22 19:55:36 0.0002258384 610.0 (m) DEBRIS
METEOR 2-5 DEB LEO 2025-02-12 21:47:05 0.0003080291 421.0 (m) DEBRIS
CZ-6A DEB LEO 2025-01-02 22:12:13 0.0007097949 494.0 (m) DEBRIS

Associated space launch

Radarsat 1, a Canadian-led international program and a major part of the overall Canadian Space Agency (CSA) program, is Canada's first remote-sensing satellite.

RADARSAT was lifted into orbit during the mission ‘Delta II | Radarsat’, on board a Delta II space rocket.

The launch took place on Nov. 4, 1995, 2:22 p.m. from Space Launch Complex 2W.

For more information about the launch, click the button.

Launch to space Delta II | Radarsat
Delta II | Radarsat

Agency: N/A

Status: Launch Successful

Launch date: Nov. 4, 1995, 2:22 p.m. UTC

Rocket: Delta II

Launch pad: Space Launch Complex 2W

Location: Vandenberg SFB, CA, USA

...

Latest news about this satellite

There are no fresh news available about this satellite. Check back as we update our databases every day.


Newsletter sign-up

Weekly statistics, charts and insights to help you stay on top of the space industry.